SCP
0 0 0 0 0 0 0 0 0 0 0 0 0 0 0 0 0 0 0 0 0 0 0 0 0 0 0 0 0 0 0 0 0 0 0 0 0 0
0 0 0 0 0 0 0 0 0 0 0 0 0 0 0 0 0 0 0 0 0 0 0 0 0 0 0 0 0 0 0 0 0 0 0 0 0 0
0 0 0 0 0 0 0 0 0 0 0 0 0 0 0 0 0 0 0 0 0 0 0 0 0 0 0 0 0 0 0 0 0 0 0 0 0 0
0 0 0 0 0 0 0 0 0 0 0 0 0 0 0 0 0 0 0 0 0 0 0 0 0 0 0 0 0 0 0 0 0 0 0 0 0 0
0 0 0 0 0 0 0 0 0 0 0 0 0 0 0 0 0 0 0 0 0 0 0 0 -0 0 0 0 0 0 0 0 0 0 0 0 0 0
0 0 0 0 0 0 0 0 0 0 0 0 0 0 0 0 0 0 0 0 0 0 0 0 0 0 0 0 0 0 0 0 0 0 0 0 0 0
0 0 0 0 0 0 0 0 0 0 0 0 0 0 0 0 0 0 0 0 0 0 0 0 0 0 0 0 0 0 0 0 0 0 0 0 0 0
0 0 0 0 0 0 0 0 0 0 0 0 0 0 0 0 0 0 0 0 0 0 0 0 0 0 0 0 0 0 0 0 0 0 0 0 0 0
0 0 0 0 0 0 0 0 0 0 0 0 0 0 0 0 0 0 0 0 0 0 0 0 0 0 0 0 0 0 0 0 0 0 0 0 0 0
0 0 0 0 0 0 0 0 0 0 0 0 0 0 0 0 0 0 0 0 0 0 0 0 0 0 0 0 0 0 0 0 0 0 0 0 0 0
0 0 0 0 0 0 0 0 0 0 0 0 0 0 0 0 0 0 0 0 0 0 0 0 0 0 0 0 0 0 0 0 0 0 0 0 0 0
0 0 0 0 0 0 0 0 0 0 0 0 0 0 0 0 0 0 0 0 0 0 0 0 0 0 0 0 0 0 0 0 0 0 0 0 0 0
0 0 0 0 0 0 0 0 0 0 0 0 0 0 0 0 0 0 0 0 0 0 0 0 0 0 0 0 0 0 0 0 0 0 0 0 0 0
0 0 0 0 0 0 0 0 0 0 0 0 0 0 0 0 0 0 0 0 0 0 0 0 0 0 0 0 0 0 0 0 0 0 0 0 0 0
0 0 0 0 0 0 0 0 0 0 0 0 0 0 0 0 0 0 0 0 0 0 0 0 0 0 0 0 0 0 0 0 0 0 0 0 0 0
0 0 0 0 0 0 0 0 0 0 0 0 0 0 0 0 0 0 0 0 0 0 0 0 0 0 0 0 0 0 0 0 0 0 0 0 0 0
0 0 0 0 0 0 0 0 0 0 0 0 0 0 0 0 0 0 0 0 0 0 0 0 0 0 0 0 0 0 0 0 0 0 0 0 0 0
0 0 0 0 0 0 0 0 0 0 0 0 0 0 0 0 0 0 0 0 0 0 0 0 0 0 0 0 0 0 0 0 0 0 0 0 0 0
0 0 0 0 0 0 0 0 0 0 0 0 0 0 0 0 0 0 0 0 0 0 0 0 0 0 0 0 0 0 0 0 0 0 0 0 0 0
0 0 0 0 0 0 0 0 0 0 0 0 0 0 0 0 0 0 0 0 0 0 0 0 0 0 0 0 0 0 0 0 0 0 0 0 0 0
0 0 0 0 0 0 0 0 0 0 0 0 0 0 0 0 0 0 0 0 0 0 0 0 0 0 0 0 0 0 0 0 0 0 0 0 0 0
0 0 0 0 0 0 0 0 0 0 0 0 0 0 0 0 0 0 0 0 0 0 0 0 0 0 0 0 0 0 0 0 0 0 0 0 0 0
0 0 0 0 0 0 0 0 0 0 0 0 0 0 0 0 0 0 0 0 0 0 0 0 0 0 0 0 0 0 0 0 0 0 0 0 0 0
Wind_Speed
2 2 2 2 2 2 3 3 3 2 2 2 1 2 1 1 3 2 2 3 4 4 4 4 4 4 4 5 5 4 4 4 4 5 5 6 6 7
2 2 2 2 2 1 2 2 3 3 2 2 2 2 2 2 3 2 2 5 5 5 4 4 4 5 5 5 5 5 4 4 4 5 5 5 6 6
2 2 3 2 1 1 1 1 1 2 2 2 2 2 2 2 2 2 2 2 2 5 5 5 5 5 5 5 5 5 4 4 4 4 5 5 5 5
3 2 3 1 1 1 1 1 1 1 2 2 2 1 2 3 3 3 3 3 2 5 6 6 6 5 5 5 5 5 5 4 4 4 4 5 5 6
2 2 2 1 1 1 1 1 1 1 1 2 2 1 1 1 1 2 2 2 3 4 5 6 6 6 6 6 6 6 6 5 5 5 5 4 5 5
2 2 2 1 2 1 1 1 1 0 0 1 1 1 1 1 1 1 2 2 2 2 3 4 5 7 7 7 7 7 7 7 6 6 5 5 5 5
3 2 2 2 2 2 1 1 1 1 0 0 1 1 1 1 1 1 2 2 2 2 1 2 2 2 4 6 8 9 9 8 8 8 7 6 6 6
3 3 3 3 3 3 2 2 3 3 2 1 1 2 3 2 2 1 1 0 2 2 1 3 2 3 3 4 7 9 10 10 9 9 8 7 7 6
2 2 3 3 3 2 3 3 2 3 5 3 3 3 3 3 2 1 2 2 3 2 1 2 2 3 4 5 8 10 10 10 10 9 9 8 8 7
2 2 1 3 3 2 1 2 3 3 3 3 4 5 4 4 4 3 3 2 3 2 2 2 2 2 3 3 6 9 10 10 10 10 9 9 9 8
3 2 1 2 4 3 1 2 4 4 4 4 6 6 7 6 4 2 1 1 2 2 2 2 2 2 2 2 4 7 9 9 10 10 10 9 9 8
3 3 3 3 5 4 1 1 3 5 4 4 4 5 5 5 6 5 4 3 2 2 2 2 2 1 2 2 1 2 4 6 9 10 10 10 9 5
2 3 3 5 5 5 3 3 6 5 3 3 4 4 3 3 4 4 5 5 4 4 4 3 2 1 2 2 2 2 3 3 3 5 8 11 10 8
3 3 4 6 7 7 5 6 8 5 2 2 3 4 4 4 4 4 5 6 6 7 5 4 3 3 2 2 3 2 2 3 3 3 4 6 8 11
4 6 7 8 7 6 7 8 6 2 2 2 4 4 4 4 3 3 3 4 4 6 6 6 5 4 3 4 3 3 3 3 4 4 4 4 5 4
3 5 7 8 6 6 6 5 3 3 3 4 4 4 3 3 3 2 3 2 2 4 4 5 7 6 4 5 4 4 4 3 3 4 4 4 4 5
2 2 2 3 3 4 4 4 3 3 3 3 4 4 4 3 4 3 2 2 2 3 4 3 3 5 6 5 4 5 5 5 5 4 3 4 5 5
1 2 3 4 4 4 4 4 4 4 4 4 4 4 4 4 4 3 2 3 3 4 4 4 2 1 1 4 8 7 5 5 5 4 4 4 6 5
2 3 4 4 4 4 4 4 4 4 3 3 3 4 4 4 4 3 3 3 3 4 4 3 2 3 3 5 6 8 7 5 4 4 4 5 6 6
3 4 5 5 4 5 5 4 5 4 3 3 3 3 3 3 3 3 3 4 4 4 4 3 3 5 6 6 5 4 8 6 5 5 5 4 4 5
4 4 5 5 5 5 4 4 4 4 4 3 3 3 3 3 3 4 4 5 4 4 4 5 6 7 4 1 3 4 5 8 9 6 4 3 3 3
4 5 5 5 4 4 4 4 3 4 4 3 3 3 3 3 4 5 4 4 4 5 5 5 4 2 2 4 6 6 6 4 6 9 9 8 5 5
4 4 4 4 4 3 3 4 4 4 3 3 3 3 4 4 4 4 4 4 4 4 4 4 3 2 3 5 6 5 6 5 3 3 4 8 12 13
Wind_Direction
271 265 256 253 240 222 197 180 179 232 273 271 277 263 235 237 238 227 226 232 228 220 221 222 226 225 228 229 224 229 226 230 227 222 218 218 220 218
275 280 277 260 259 248 212 199 189 188 231 247 249 255 240 244 237 225 228 237 236 232 229 234 234 227 225 225 227 221 222 224 223 221 216 219 219 216
292 282 284 278 266 268 245 214 206 182 212 270 268 260 232 238 240 239 237 232 238 234 232 237 238 234 231 229 224 220 219 217 217 216 214 211 207 204
291 295 297 310 306 278 253 250 240 208 190 240 277 261 243 235 234 236 243 233 231 236 233 233 231 231 230 230 225 218 213 209 206 205 209 212 212 211
282 279 289 320 317 302 286 266 258 248 188 202 261 264 261 233 245 256 249 255 242 234 230 232 232 231 230 231 227 219 214 211 210 212 214 217 219 217
300 281 275 252 249 275 290 269 233 267 241 209 265 278 274 260 170 229 275 270 262 249 239 234 231 232 231 229 228 225 219 216 215 214 213 215 216 217
324 315 291 281 265 254 254 244 202 209 241 241 275 290 284 262 231 231 251 277 275 243 240 252 228 232 235 231 227 223 220 218 216 215 213 214 218 220
314 322 319 308 312 310 294 258 212 198 211 223 247 240 250 241 243 231 220 302 289 265 200 259 214 237 241 229 225 218 215 216 217 216 214 216 220 222
292 306 326 334 336 320 307 308 295 242 214 202 217 231 227 223 207 235 221 214 239 247 183 264 244 241 246 236 225 219 216 215 216 216 216 218 222 226
294 273 286 310 312 315 311 322 311 292 255 221 217 230 232 224 207 208 219 240 270 262 180 234 262 255 261 246 232 222 218 217 217 219 220 221 224 228
315 308 283 291 301 313 328 310 314 308 295 257 235 246 251 246 221 191 217 212 277 278 213 197 249 269 271 258 239 223 219 219 220 221 223 226 227 228
314 311 297 286 299 313 288 274 287 288 301 307 290 280 265 256 231 205 200 200 225 260 231 186 228 219 297 285 253 226 224 229 226 226 226 229 226 218
299 301 295 298 298 298 285 250 252 265 280 279 283 285 281 265 247 221 206 199 206 234 223 175 201 194 206 277 294 239 211 220 219 231 232 234 229 212
266 278 284 296 297 292 284 268 272 276 265 275 279 278 272 266 259 243 223 220 222 228 220 181 192 196 192 230 266 269 244 223 211 228 232 233 233 226
258 270 283 291 296 291 277 276 278 258 243 255 263 266 259 258 261 265 253 236 242 244 235 212 207 210 198 213 232 234 249 253 220 220 226 221 220 209
285 290 293 291 285 275 283 287 264 235 227 239 254 260 265 270 268 254 255 248 260 279 258 226 215 206 218 228 226 239 230 233 236 224 223 234 230 216
291 302 307 308 307 300 295 288 277 262 244 241 245 257 263 264 264 251 238 236 231 256 273 269 231 215 217 211 223 237 237 239 237 228 217 240 244 230
253 281 288 282 276 278 282 287 282 269 256 246 246 246 251 254 262 260 232 223 240 251 256 258 252 277 303 261 221 229 238 240 241 226 206 221 251 246
231 263 270 272 274 273 268 265 269 269 260 254 254 251 249 251 249 256 254 245 249 255 256 246 219 204 232 263 262 216 216 236 233 231 220 214 233 245
242 258 267 269 269 270 270 267 269 275 269 259 255 255 253 250 252 254 252 249 252 260 267 259 233 217 217 235 253 255 218 215 219 230 237 234 241 254
270 264 261 261 263 266 267 267 266 269 267 259 257 260 261 254 255 255 253 259 258 258 260 259 254 243 234 210 259 265 254 227 215 212 212 218 242 250
272 274 274 271 267 268 271 274 274 273 273 265 262 266 265 258 257 258 256 255 250 249 254 262 266 246 209 223 247 259 268 270 244 232 224 206 197 212
259 264 271 277 270 268 274 280 279 272 265 261 263 268 269 268 265 259 258 258 259 259 260 266 269 249 242 239 249 256 261 265 258 252 258 240 228 233